Weather History for KLUF - March, 2014

Change the Weather History Date:

Sunday, March 2, 2014

  Actual Average Record
Temperature  
Mean Temperature 59 °F -  
Max Temperature 65 °F 72 °F 91 °F (1921)
Min Temperature 53 °F 45 °F 22 °F (1971)
Degree Days  
Heating Degree Days 6    
Growing Degree Days 9 (Base 50)    
Moisture  
Dew Point 50 °F    
Average Humidity 67    
Maximum Humidity 99    
Minimum Humidity 47    
Precipitation  
Precipitation 0.01 in - - ()
Sea Level Pressure  
Sea Level Pressure 30.05 in    
Wind  
Wind Speed 4 mph (ESE)    
Max Wind Speed 6 mph    
Max Gust Speed -    
Visibility 10 miles    
Events Rain    
Averages and records for this station are not official NWS values.
T = Trace of Precipitation, MM = Missing Value Source: NWS Daily Summary

Daily Weather History Graph

Daily Weather History Graph

Search for Another Location

Airport or City:

Trip Planner

Search our weather history database for the weather conditions in past years. The results will help you decide how hot, cold, wet, or windy it might be!

Date:

Astronomy

Mar. 02, 2014 Rise Set
Actual Time 6:56 AM MST 6:27 PM MST
Civil Twilight 6:31 AM MST 6:52 PM MST
Nautical Twilight 6:02 AM MST 7:20 PM MST
Astronomical Twilight 5:34 AM MST 7:49 PM MST
Moon 7:36 AM MST (3/2) 8:19 PM MST (3/2)
Length of Visible Light 12h 20m
Length of Day
11h 30m
Waxing Crescent, 3% of the Moon is Illuminated
Mar 2
Waxing Crescent
Mar 8
First Quarter
Mar 16
Full
Mar 23
Last Quarter
Mar 30
New

Hourly Weather History & Observations

Time (MST) Temp. Dew Point Humidity Pressure Visibility Wind Dir Wind Speed Gust Speed Precip Events Conditions
12:48 AM 53.6 °F - N/A% 29.95 in 10.0 mi South 4.6 mph - N/A   Mostly Cloudy
12:58 AM 53.6 °F - N/A% 29.95 in 10.0 mi South 4.6 mph - N/A   Mostly Cloudy
1:26 AM 55.4 °F - N/A% 29.97 in 10.0 mi SSW 3.5 mph - N/A Rain Light Rain
1:46 AM 55.4 °F - N/A% 29.97 in 10.0 mi SSE 4.6 mph - N/A Rain Light Rain
1:50 AM 55.4 °F - N/A% 29.97 in 10.0 mi SSE 5.8 mph - N/A   Scattered Clouds
1:58 AM 53.6 °F - N/A% 29.96 in 10.0 mi South 3.5 mph - 0.01 in   Partly Cloudy
2:18 AM 55.4 °F - N/A% 29.98 in 10.0 mi SSW 2.3 mph - N/A   Mostly Cloudy
2:48 AM 55.4 °F - N/A% 29.97 in 10.0 mi South 2.3 mph - N/A   Scattered Clouds
2:58 AM 53.6 °F - N/A% 29.96 in 10.0 mi South 3.5 mph - N/A   Partly Cloudy
3:58 AM 53.6 °F - N/A% 29.99 in 10.0 mi SSE 3.5 mph - N/A   Scattered Clouds
4:28 AM 53.6 °F - N/A% 29.99 in 10.0 mi East 2.3 mph - N/A   Mostly Cloudy
4:38 AM 53.6 °F - N/A% 30.00 in 10.0 mi ENE 3.5 mph - N/A   Mostly Cloudy
4:58 AM 53.6 °F - N/A% 29.99 in 10.0 mi East 4.6 mph - N/A   Mostly Cloudy
5:18 AM 53.6 °F - N/A% 30.01 in 10.0 mi ESE 4.6 mph - N/A   Partly Cloudy
5:58 AM 53.6 °F - N/A% 30.02 in 10.0 mi WNW 3.5 mph - N/A   Mostly Cloudy
6:48 AM 53.6 °F - N/A% 30.06 in 10.0 mi NNE 2.3 mph - N/A   Mostly Cloudy
6:58 AM 53.6 °F - N/A% 30.06 in 10.0 mi North 4.6 mph - N/A   Mostly Cloudy
7:58 AM 53.6 °F - N/A% 30.09 in 10.0 mi SE 4.6 mph - N/A   Overcast
8:58 AM 55.4 °F - N/A% 30.12 in 10.0 mi ESE 3.5 mph - N/A   Overcast
9:08 AM 55.4 °F - N/A% 30.13 in 10.0 mi Variable 2.3 mph - N/A   Mostly Cloudy
9:28 AM 55.4 °F - N/A% 30.13 in 10.0 mi Variable 1.2 mph - N/A   Scattered Clouds
9:58 AM 56.3 °F 55.9 °F 99% 30.14 in 10.0 mi East 2.3 mph - N/A   Scattered Clouds
10:58 AM 59.5 °F 52.7 °F 78% 30.12 in 10.0 mi Variable 1.2 mph - N/A   Clear
11:58 AM 61.7 °F 50.0 °F 65% 30.11 in 10.0 mi NNE 1.2 mph - N/A   Clear
12:58 PM 63.5 °F 46.8 °F 54% 30.09 in 10.0 mi Variable 1.2 mph - N/A   Partly Cloudy
1:58 PM 64.9 °F 45.9 °F 50% 30.07 in 10.0 mi South 2.3 mph - N/A   Clear
2:58 PM 65.8 °F 45.3 °F 47% 30.04 in 10.0 mi Variable 3.5 mph - N/A   Clear
3:38 PM 64.4 °F 44.6 °F 49% 30.06 in 10.0 mi South 4.6 mph - N/A   Mostly Cloudy
3:58 PM 64.8 °F 44.8 °F 48% 30.05 in 10.0 mi SSW 4.6 mph - N/A   Overcast
4:58 PM 64.2 °F 46.2 °F 52% 30.05 in 10.0 mi West 5.8 mph - N/A   Overcast
5:58 PM 64.0 °F 45.1 °F 50% 30.06 in 10.0 mi NW 2.3 mph - N/A   Mostly Cloudy
6:08 PM 64.4 °F 46.4 °F 52% 30.07 in 10.0 mi WNW 2.3 mph - N/A   Scattered Clouds
6:58 PM 62.2 °F 49.8 °F 64% 30.07 in 10.0 mi North 3.5 mph - N/A   Clear
7:58 PM 61.3 °F 50.0 °F 66% 30.09 in 10.0 mi North 1.2 mph - N/A   Scattered Clouds
8:18 PM 60.8 °F 51.8 °F 72% 30.10 in 10.0 mi NW 3.5 mph - N/A   Mostly Cloudy
8:58 PM 60.4 °F 54.0 °F 79% 30.10 in 10.0 mi NNW 3.5 mph - N/A   Mostly Cloudy
9:18 PM 60.8 °F 53.6 °F 77% 30.11 in 10.0 mi NNW 4.6 mph - N/A   Scattered Clouds
9:58 PM 58.8 °F 52.5 °F 80% 30.10 in 10.0 mi North 4.6 mph - N/A   Clear
10:58 PM 57.9 °F 54.3 °F 88% 30.10 in 10.0 mi North 3.5 mph - N/A   Clear
11:58 PM 56.5 °F 55.4 °F 96% 30.08 in 10.0 mi North 2.3 mph - N/A   Partly Cloudy